Location: Unspecified
(42.2600°N, 0.0000°E)
Time: 09:14:52
(UTC+00:00)

Tiangong 2 - Visible Passes

Search period start: 19 May 2019 00:00
Search period end: 29 May 2019 00:00
Orbit: 378 x 387 km, 42.8° (Epoch: 19 May)

Date Brightness Start Highest point End Pass type
(mag) Time Alt. Az. Time Alt. Az. Time Alt. Az.
19 May 2.3 20:20:43 10° SSW 20:23:12 22° SSE 20:24:17 18° ESE visible
19 May 4.0 21:56:30 10° WSW 21:56:34 10° WSW 21:56:34 10° WSW visible
20 May 1.1 20:56:36 10° WSW 20:59:39 53° SSE 21:00:26 39° ESE visible
21 May 1.8 19:56:50 10° SW 19:59:43 34° SSE 20:02:36 10° E visible
21 May 1.1 21:33:09 10° W 21:36:03 75° W 21:36:03 75° W visible
22 May 0.9 20:33:08 10° WSW 20:36:15 75° SSE 20:39:07 12° E visible
22 May 3.0 22:09:51 10° W 22:11:18 25° W 22:11:18 25° W visible
23 May 1.1 21:09:47 10° W 21:12:55 79° N 21:14:08 34° E visible
24 May 1.0 20:09:43 10° W 20:12:51 87° NNW 20:15:59 10° E visible
24 May 1.5 21:46:28 10° W 21:49:01 55° W 21:49:01 55° W visible
25 May 1.1 20:46:24 10° W 20:49:32 80° N 20:51:37 19° E visible
25 May 3.7 22:23:09 10° W 22:23:47 15° W 22:23:47 15° W visible
26 May 0.9 21:23:03 10° W 21:26:10 67° SSW 21:26:19 65° S visible
27 May 1.0 20:22:58 10° W 20:26:06 88° SSW 20:28:50 13° E visible
27 May 3.3 21:59:51 10° W 22:01:00 18° WSW 22:01:00 18° WSW visible
28 May 1.5 20:59:37 10° W 21:02:38 45° SSW 21:03:30 34° SSE visible
